COSMOS 2251 DEB, 35961

Orbit data source: Space-Track

COSMOS 2251 DEB, 35961 is space debris in LEO originally from a launch on Wed, 16 Jun 1993 UTC launched from the Plesetsk Missile And Space Complex (PKMTR). The debris from Iridium 33, an American commercial communications satellite, has been tracked extensively since its accidental collision with the defunct Russian satellite Cosmos 2251 in 2009. This event, occurring at high speed in low Earth orbit (LEO), generated thousands of pieces of space debris, significantly increasing the risk of further collisions. The Iridium 33 debris cloud has impacted space traffic management and orbital debris mitigation strategies, making it a subject of ongoing study in space situational awareness.

Loading next visibility...
Identifier
35961, 1993-036AVB
Orbit
LEO
Country
Flag of CISCIS
Related business
Manufacturer
Unknown
Mission
Spacecraft
Bus & Motor
Unknown
Mass
Unknown
Launch date (UTC)
1993-06-16 (33 years ago)
Launch vehicle
Unknown
Launch site
Plesetsk Missile And Space Complex (PKMTR)
Object type
Payload
Rocket body
Debris
Shape & HBR
Unknown shape, 0.1 m
Radar Cross Section
Small (<0.1 m²)

Expand to show TLE details & history
Last TLE update: 2 days ago

TLE from 2 days ago
0 COSMOS 2251 DEB
1 35961U 93036AVB 26263.13940472  .00001368  00000-0  71875-3 0  9993
2 35961  73.9257  68.6588 0186005 305.1327  53.2498 14.06650073666372
Epoch: 2026-09-20T03:20Z
TLE epoch observation values (Epoch: 2026-09-20T03:20:44.567Z)
Latitude
-0.00007°
Longitude
19.43521°
Altitude
794.378 km
Speed
7.497 km/s
True Right ascension
04h 34m 38s
True Declination
0° 00' 00"
Sunlit
Object was in daylight at epoch
Visualization orbit readout
Latitude
Unknown
Longitude
Unknown
Altitude
Unknown
Speed
Unknown
Apparent Right ascension
Unknown
Apparent Declination
Unknown
Sunlit
N/A
Visualization observer readout
Local Sidereal Time
02:36:03
Azimuth
Unknown
Elevation
Unknown
Doppler factor
Unknown
Orbital elements
Apogee altitude
1,003.314 km
Perigee altitude
733.731 km
Semi-major axis
7,246.66 km
Eccentricity
0.0186
Inclination
73.9257°
RAAN
68.6588°
Arg. of periapsis
305.1327°
True anomaly
54.98145°
Mean anomaly
53.2498°
Eccentric anomaly
54.11323°
Mean motion
3.51833 °/min
Orbital period
102.32 mins
BSTAR
0.00071875

Documentation

Showing up to 5 results
|